Regional Weather Roundup
Issued by NWS Newport/Morehead, NC

Current Version | Previous Version | Graphics & Text | Print | Product List | Glossary Off
Versions: 1 2 3 4 5 6 7 8 9 10 11 12 13 14 15 16 17 18 19 20 21 22 23 24 25 26 27 28 29 30 31 32 33 34 35 36 37 38 39 40 41 42 43 44 45 46 47 48 49 50

000
ASUS42 KMHX 281322
RWRMHX
WEATHER ROUNDUP FOR EASTERN NORTH CAROLINA
NATIONAL WEATHER SERVICE NEWPORT/MOREHEAD CITY NC
800 AM EST FRI NOV 28 2014

NOTE: "FAIR" INDICATES FEW OR NO CLOUDS BELOW 12,000 FEET
WITH NO SIGNIFICANT WEATHER AND/OR OBSTRUCTIONS TO VISIBILITY

NCZ015>017-031-032-045>047-102-103-281400-
NORTH COAST

CITY           SKY/WX    TMP DP  RH WIND       PRES   REMARKS
EDENTON          N/A     35  29  79 N7        30.32R
ELIZABETH CITY SUNNY     36  28  73 W8        30.30R
KITTY HAWK     SUNNY     37  27  65 NW10      30.25R
MANTEO         SUNNY     38  28  67 NW10G18   30.28R

$$

NCZ045>047-081-094-103-104-281400-
CENTRAL COAST

CITY           SKY/WX    TMP DP  RH WIND       PRES   REMARKS
FRISCO         SUNNY     39  31  72 N8G18     30.26R
SWANQUARTER      N/A     36 N/A N/A N5G10     30.27S

$$

NCZ095-097-098-100-101-281400-
SOUTHERN COAST

CITY           SKY/WX    TMP DP  RH WIND       PRES   REMARKS
BEAUFORT       SUNNY     36  27  69 N14       30.31R
CEDAR ISLAND     N/A     41 N/A N/A NW23G29   30.33S
JACKSONVILLE   SUNNY     34  26  72 NW10      30.32R
PINEY ISLAND   SUNNY     41  28  60 N17G25    30.30R
WILMINGTON     SUNNY     34  26  72 NW6       30.33S


$$

NCZ011>013-027>030-043-044-078>080-089-090>093-098-281400-
COASTAL PLAIN

CITY           SKY/WX    TMP DP  RH WIND       PRES   REMARKS
AHOSKIE        CLEAR     31  25  79 CALM      30.34R
CLINTON        CLEAR     32  27  80 NW3       30.35R
ELIZABETHTOWN  CLEAR     33  24  69 NW5       30.35R
GOLDSBORO      CLEAR     32  28  85 NW2       30.32R
GREENVILLE     CLEAR     32  27  80 CALM      30.33R
HAVELOCK       SUNNY     38  24  57 N15       30.32R
KENANSVILLE    CLEAR     33  25  73 NW6       30.35R
KINSTON        SUNNY     34  25  69 NW7       30.34R
NEW BERN       SUNNY     36  24  62 N9        30.33R
RICHLANDS      SUNNY     34  25  69 NW3       30.34R
ROCKY MOUNT    CLEAR     32  23  69 NW6       30.33R
WASHINGTON     SUNNY     32  26  76 NW6       30.33R
WHITEVILLE     CLEAR     32  27  79 CALM      30.34S

$$

AMZ130-135-150-152-154-156-158-170-250-252-270-ANZ085-086-088-633-658-670-281400-
MARINE OBSERVATIONS

STATION/POSITION TIME  TEMP    WIND        PRES    WAVE   SWELL
                       AIR SEA DIR/SP/G            HT/PER HT/PER
                 (UTC) (F)     (DEG/KT/KT) (MB)    (FT/S) (FT/S)
CHESAPEAKE LIGHT 1300   39     330/ 26/ 29 1025.1
64 E VA BEACH    1300   44 63  340/ 21/ 27 1022.4    7/ 6   2/10
DUCK             1300   38 52  330/ 20/ 21 1024.0
2 E DUCK         1300      54                N/A     6/ 6   2/13
10 NE DUCK       1300      56                N/A     7/ 6   2/11
OREGON INLET     1300   39 52  320/ 16/ 21 1024.6
13E OREGON INLT  1300      60                N/A     8/ 6   2/13
HATTERAS CG      1300   41 53  350/ 23/ 26 1025.3
DIAMOND BUOY     1300   45     330/ 21/ 25 1023.6    6/ 5   2/ 9
17 S OCRACOKE    NOT AVBL
CAPE LOOKOUT     1300   37     350/ 17/ 21 1025.9
BEAUFORT LAB     1300   37 53  350/ 11/ 17 1025.4
30 SE NEW RIVER  1300   44 65  360/ 23/ 29 1025.6    6/ 5   2/ 9
5 SE WRIGHTSVLE  1300   38 58  340/ 21/ 25 1026.5
225 S CAPE HAT   1151   59 72  330/ 21/ 27 1021.3   12/ 9   2/13
41 SE CHARLESTON 1300   48 72  360/ 19/ 25 1025.9    6/ 6   2/ 9

$$



USA.gov is the U.S. government's official web portal to all federal, state and local government web resources and services.